This demonstration page uses our WeatherBlox Daily Observations layout. Learn more.

39.92423, -83.80882

Hourly Observations for September 13, 2019

Temp ( °F °C ) Dew Point ( °F °C ) Humidity (%) Winds ( mph kmh ) Pressure ( in mb ) Visibility ( mi km ) Precip ( " mm )
12:56 am 00:56 Clear 71 21.7 69 20.6 94 94 E 3 6 30.12 1020 10 16.09344 0 0
1:56 am 01:56 Clear 70 21.1 69 20.6 97 97 E 6 9 30.12 1020 10 16.09344 0 0
2:56 am 02:56 Clear 69 20.6 69 20.6 100 100 ESE 6 9 30.12 1020 10 16.09344 0 0
3:56 am 03:56 Clear 68 20 68 20 100 100 SE 5 7 30.09 1019 9 14.484096 0 0
4:56 am 04:56 Clear 70 21.1 70 21.1 100 100 SE 6 9 30.09 1019 8 12.874752 0 0
5:56 am 05:56 Clear 70 21.1 70 21.1 100 100 SSE 8 13 30.09 1019 8 12.874752 0 0
6:56 am 06:56 Clear 69 20.6 69 20.6 100 100 SSE 7 11 30.12 1020 8 12.874752 0 0
7:56 am 07:56 Sunny 71 21.7 70 21.1 96 96 SSE 8 13 30.12 1020 10 16.09344 0 0
8:56 am 08:56 Sunny 75 23.9 70 21.1 84 84 S 6 9 30.12 1020 10 16.09344 0 0
9:56 am 09:56 Sunny 80 26.7 71 21.7 74 74 S 6 9 30.12 1020 10 16.09344 0 0
10:56 am 10:56 Sunny 85 29.4 71 21.7 63 63 SW 10 17 30.12 1020 10 16.09344 0 0
11:56 am 11:56 Sunny 88 31.1 71 21.7 57 57 WSW 15 24 30.12 1020 10 16.09344 0 0
12:56 pm 12:56 Mostly Cloudy 89 31.7 70 21.1 53 53 WSW 14 22 30.09 1019 10 16.09344 0 0
1:56 pm 13:56 Mostly Sunny 92 33.3 70 21.1 49 49 SW 8 13 30.09 1019 10 16.09344 0 0
2:56 pm 14:56 Mostly Sunny 93 33.9 68 20 44 44 SW 15 24 30.06 1018 10 16.09344 0 0
3:56 pm 15:56 Mostly Sunny 93 33.9 68 20 44 44 SW 17 28 30.03 1017 10 16.09344 0 0
4:56 pm 16:56 Sunny 91 32.8 69 20.6 49 49 SW 14 22 30.03 1017 10 16.09344 0 0
5:56 pm 17:56 Mostly Sunny 90 32.2 69 20.6 50 50 SW 13 20 30.03 1017 10 16.09344 0 0
6:56 pm 18:56 Mostly Sunny 88 31.1 69 20.6 54 54 SW 8 13 30.03 1017 10 16.09344 0 0
7:56 pm 19:56 Clear 84 28.9 68 20 59 59 SW 7 11 30.03 1017 10 16.09344 0 0
8:56 pm 20:56 Mostly Cloudy 81 27.2 68 20 65 65 WSW 6 9 30.06 1018 10 16.09344 0 0
9:56 pm 21:56 Mostly Clear 80 26.7 70 21.1 71 71 W 12 19 30.06 1018 10 16.09344 0 0
10:56 pm 22:56 Mostly Cloudy 80 26.7 70 21.1 71 71 WNW 7 11 30.09 1019 10 16.09344 0 0
11:56 pm 23:56 Mostly Cloudy 76 24.4 67 19.4 74 74 WNW 10 17 30.12 1020 10 16.09344 0 0

Powered by AerisWeather